Find Starlink 37076

NORAD ID: 68173 Int'l Des: 2026-050 Owner: SPXS Country: US Constellation: starlink operational
LEOCIRCULAR

当前视图

正在加载3D地球...

About Starlink 37076

Starlink 37076 (NORAD 68173) is a starlink constellation satellite (v2 mini) launched Mar 14, 2026 by SPXS of US. It operates in LEO, CIRCULAR orbit with a mass of 575.00 kg.

关于 Starlink 37076

正在加载描述...

即将过境

Passes for default location (London). Set your location on the main map for personalized predictions.

高度历史

Loading altitude history...

两行轨道根数

1 68173U 26050G 26166.31594007 .00019441 00000-0 58514-3 0 9993
2 68173 53.1561 172.3276 0001064 89.0656 271.0468 15.34393455 15647
Epoch: Jun 15, 2026 • Age: 12 hours

当前状态

高度 468.1 km
速度 7.63 km/s
星下点 -18.65°S, 169.38°E
发射日期 Mar 14, 2026
运行时间 0.2 years
类型 internet

技术详情

分类 Payload
质量 575.00 kg
干质量 530.00 kg
总质量 575.00 kg
长度 0.30 m
直径 4.10 m
跨度 29.00 m
形状 Box + pan
制造商 SPXS
平台类型 Starlink V2MO
阶段状态 In Orbit
所有者/国家 SPXS/US

Most Searched